DW4005 Mahon ES current weather conditions

sailwx.info

Last reported at 2016-Jul-31 00:29 UTC.
Time now 2016-Jul-31 01:39 UTC

Location: N 39°56' E 004°08'.
View on Google Maps.

See reports from other nearby stations

  
Tides and Currents Weather Stations Pressure Air Temp Water Temp Dewpoint Dewpoint Depression Visibility Wind Speed Wind Dir Waves Ship Positions
date/time (UTC)wind fromknots sea level pressurealtimeterstation pressurevisibilityair tempwater tempwave heightnotes
2016-Jul-31 00:29
2016-Jul-30 23:43
2016-Jul-30 23:28
2016-Jul-30 23:13
2016-Jul-30 22:58
2016-Jul-30 22:43
2016-Jul-30 22:28
2016-Jul-30 22:13
2016-Jul-30 21:58
2016-Jul-30 21:43
2016-Jul-30 21:28
2016-Jul-30 21:12
2016-Jul-30 20:58
2016-Jul-30 20:42
2016-Jul-30 20:27
2016-Jul-30 20:12
2016-Jul-30 19:57
2016-Jul-30 19:42
2016-Jul-30 19:27
2016-Jul-30 19:12
2016-Jul-30 18:57
2016-Jul-30 18:42 148 4 gusting 9 26.7
2016-Jul-30 18:27 153 3 gusting 7 27.2
2016-Jul-30 18:12 150 27.8
2016-Jul-30 17:57 183 28.3
2016-Jul-30 17:42 158 28.9
2016-Jul-30 17:27 171 29.4
2016-Jul-30 17:12 169 30.0
2016-Jul-30 16:57 166 30.6
2016-Jul-30 16:42 161 31.1
2016-Jul-30 16:27 165 31.7
2016-Jul-30 16:12 144 31.7
2016-Jul-30 15:57 158 32.2
2016-Jul-30 15:42 180 32.8
2016-Jul-30 15:27 095 33.3
2016-Jul-30 15:12 186 33.3
2016-Jul-30 14:57 196 33.3
2016-Jul-30 14:42 153 33.3
2016-Jul-30 14:27 168 33.3
2016-Jul-30 14:12 286 32.8
2016-Jul-30 13:57 360 33.3
2016-Jul-30 13:42 174 33.3
2016-Jul-30 13:26 175 33.3
2016-Jul-30 13:11 167 3 gusting 11 33.3
2016-Jul-30 12:56 155 3 gusting 9 33.9
2016-Jul-30 12:42 126 1 gusting 12 33.3
2016-Jul-30 12:26 160 33.9
2016-Jul-30 12:12 189 34.4
2016-Jul-30 11:57 163 33.9
2016-Jul-30 11:41 180 34.4
2016-Jul-30 11:26 182 2 gusting 6 33.9
2016-Jul-30 11:11 169 2 gusting 8 33.3
2016-Jul-30 10:56 162 4 gusting 9 32.8
2016-Jul-30 10:41 171 4 gusting 7 32.8
2016-Jul-30 10:26 128 3 gusting 8 32.2
2016-Jul-30 10:11 140 5 gusting 10 32.2
2016-Jul-30 09:56 154 3 gusting 9 31.7
2016-Jul-30 09:41 139 4 gusting 8 31.7
2016-Jul-30 09:26 113 2 gusting 8 30.0
2016-Jul-30 09:11 107 2 gusting 7 29.4
2016-Jul-30 08:56 138 5 gusting 7 30.0
2016-Jul-30 08:41 017 1 gusting 4 31.1
2016-Jul-30 08:26 009 0 gusting 6 30.0
2016-Jul-30 08:11 052 0 gusting 5 30.0
2016-Jul-30 07:56 050 2 gusting 6 28.9
2016-Jul-30 07:42 153 1 gusting 7 28.3
2016-Jul-30 07:26 162 3 gusting 6 27.2
2016-Jul-30 07:11 163 4 gusting 7 26.1
2016-Jul-30 06:56 150 0 gusting 3 26.1
2016-Jul-30 03:41
2016-Jul-30 03:26
2016-Jul-30 03:11
2016-Jul-30 02:56
2016-Jul-30 02:40
2016-Jul-30 02:25
2016-Jul-30 02:10
2016-Jul-30 01:55
2016-Jul-30 01:40
2016-Jul-30 01:25
2016-Jul-30 01:10
2016-Jul-30 00:55
2016-Jul-30 00:40
2016-Jul-30 00:25
2016-Jul-30 00:10
2016-Jul-29 23:55
2016-Jul-29 23:39
2016-Jul-29 23:25
2016-Jul-29 23:12
2016-Jul-29 23:04
2016-Jul-29 22:57
2016-Jul-29 22:47
2016-Jul-29 22:36
2016-Jul-29 22:28
2016-Jul-29 22:19
2016-Jul-29 22:11
2016-Jul-29 22:04
2016-Jul-29 21:55
2016-Jul-29 21:47
2016-Jul-29 21:36
2016-Jul-29 21:28
2016-Jul-29 21:20
2016-Jul-29 21:00
2016-Jul-29 20:14
2016-Jul-29 19:24
2016-Jul-29 18:53
2016-Jul-29 18:38 171 5 gusting 10 27.2
2016-Jul-29 18:24 156 3 gusting 9 27.8
2016-Jul-29 18:08 151 5 gusting 9 28.3
2016-Jul-29 17:53 174 3 gusting 8 28.9
2016-Jul-29 17:38 153 3 gusting 8 29.4
2016-Jul-29 17:23 159 3 gusting 6 30.0
2016-Jul-29 17:08 148 2 gusting 8 30.6
2016-Jul-29 16:53 140 1 gusting 7 30.6
2016-Jul-29 16:38 136 3 gusting 8 30.6
2016-Jul-29 16:23 128 1 gusting 7 31.1
2016-Jul-29 16:08 121 0 gusting 8 30.6
2016-Jul-29 15:53 080 1 gusting 6 30.0
2016-Jul-29 15:38 060 4 gusting 8 28.9
2016-Jul-29 15:23 119 2 gusting 7 28.9
2016-Jul-29 15:08 113 3 gusting 11 28.3
2016-Jul-29 14:53 027 2 gusting 8 28.9
2016-Jul-29 14:38 124 3 gusting 8 27.8
2016-Jul-29 14:23 113 4 gusting 9 28.3
2016-Jul-29 14:08 105 5 gusting 8 27.8
2016-Jul-29 13:53 121 4 gusting 7 28.3
2016-Jul-29 13:38 092 3 gusting 8 27.8
2016-Jul-29 13:23 134 4 gusting 7 28.3
2016-Jul-29 13:08 105 4 gusting 8 28.3
2016-Jul-29 12:53 059 5 gusting 8 28.3
2016-Jul-29 12:38 040 2 gusting 8 28.3
2016-Jul-29 12:23 109 4 gusting 9 28.3
2016-Jul-29 12:08 035 1 gusting 7 29.4
2016-Jul-29 11:52 035 2 gusting 8 29.4
2016-Jul-29 11:38 038 4 gusting 7 29.4
2016-Jul-29 11:23 026 2 gusting 6 29.4
2016-Jul-29 11:08 036 3 gusting 6 29.4
2016-Jul-29 10:52 019 1 gusting 6 29.4
2016-Jul-29 10:38 024 3 gusting 7 28.9
2016-Jul-29 10:22 076 2 gusting 6 28.3
2016-Jul-29 10:07 042 1 gusting 6 28.9
2016-Jul-29 09:52 042 2 gusting 6 28.3
2016-Jul-29 09:37 083 1 gusting 6 27.8
2016-Jul-29 09:22 088 1 gusting 6 28.9
2016-Jul-29 09:07 030 2 gusting 5 29.4
2016-Jul-29 08:52 304 29.4
2016-Jul-29 08:38 312 2 gusting 5 29.4
2016-Jul-29 08:22 346 0 gusting 4 28.9
2016-Jul-29 08:07 025 0 gusting 4 28.9
2016-Jul-29 07:52 059 28.9
2016-Jul-29 07:22 118 27.8
2016-Jul-29 07:07 118 27.2
2016-Jul-29 06:52 118 27.2
2016-Jul-29 06:37 118 26.1
2016-Jul-29 06:22 118 25.0
2016-Jul-29 06:07 118 24.4
2016-Jul-29 05:52 118 23.3
2016-Jul-29 05:37 118 22.8
2016-Jul-29 05:22 118 21.7
2016-Jul-29 05:07 118 21.1
2016-Jul-29 04:52
2016-Jul-29 04:37
2016-Jul-29 04:22
2016-Jul-29 04:07
2016-Jul-29 03:52
2016-Jul-29 03:36
2016-Jul-29 03:21
2016-Jul-29 03:06
2016-Jul-29 02:51
2016-Jul-29 02:36
2016-Jul-29 02:21
2016-Jul-29 02:06
2016-Jul-29 01:51
2016-Jul-29 01:36
2016-Jul-29 01:21
2016-Jul-29 01:06